Year,Month,Day,Hour,Minute,Value (Times are PST for windspeed in km/hr)
2013,12,02,00,00,14.70
2013,12,02,00,01,13.90
2013,12,02,00,02,13.50
2013,12,02,00,03,18.70
2013,12,02,00,04,16.70
2013,12,02,00,05,25.00
2013,12,02,00,06,22.20
2013,12,02,00,07,23.80
2013,12,02,00,08,17.90
2013,12,02,00,09,17.40
2013,12,02,00,10,17.00
2013,12,02,00,11,13.90
2013,12,02,00,12,20.50
2013,12,02,00,13,15.30
2013,12,02,00,14,12.30
2013,12,02,00,15,14.20
2013,12,02,00,16,13.00
2013,12,02,00,17,9.30
2013,12,02,00,18,15.70
2013,12,02,00,19,13.20
2013,12,02,00,20,10.10
2013,12,02,00,21,6.80
2013,12,02,00,22,12.80
2013,12,02,00,23,10.10
2013,12,02,00,24,11.70
2013,12,02,00,25,9.90
2013,12,02,00,26,12.60
2013,12,02,00,27,17.10
2013,12,02,00,28,16.80
2013,12,02,00,29,8.10
2013,12,02,00,30,7.90
2013,12,02,00,31,8.90
2013,12,02,00,32,13.60
2013,12,02,00,33,16.50
2013,12,02,00,34,16.30
2013,12,02,00,35,13.20
2013,12,02,00,36,17.40
2013,12,02,00,37,12.50
2013,12,02,00,38,13.10
2013,12,02,00,39,7.80
2013,12,02,00,40,12.80
2013,12,02,00,41,13.90
2013,12,02,00,42,12.20
2013,12,02,00,43,19.30
2013,12,02,00,44,15.00
2013,12,02,00,45,15.90
2013,12,02,00,46,12.90
2013,12,02,00,47,14.90
2013,12,02,00,48,10.50
2013,12,02,00,49,13.80
2013,12,02,00,50,13.80
2013,12,02,00,51,12.70
2013,12,02,00,52,18.50
2013,12,02,00,53,14.10
2013,12,02,00,54,17.40
2013,12,02,00,55,17.70
2013,12,02,00,56,15.40
2013,12,02,00,57,14.50
2013,12,02,00,58,14.50
2013,12,02,00,59,14.30
2013,12,02,01,00,8.10
2013,12,02,01,01,9.90
2013,12,02,01,02,8.40
2013,12,02,01,03,15.30
2013,12,02,01,04,20.30
2013,12,02,01,05,12.60
2013,12,02,01,06,17.00
2013,12,02,01,07,10.50
2013,12,02,01,08,21.20
2013,12,02,01,09,15.70
2013,12,02,01,10,21.70
2013,12,02,01,11,17.40
2013,12,02,01,12,13.80
2013,12,02,01,13,15.50
2013,12,02,01,14,15.40
2013,12,02,01,15,16.40
2013,12,02,01,16,15.40
2013,12,02,01,17,18.20
2013,12,02,01,18,9.80
2013,12,02,01,19,14.90
2013,12,02,01,20,17.50
2013,12,02,01,21,18.10
2013,12,02,01,22,17.50
2013,12,02,01,23,12.90
2013,12,02,01,24,27.50
2013,12,02,01,25,15.30
2013,12,02,01,26,15.40
2013,12,02,01,27,16.30
2013,12,02,01,28,12.10
2013,12,02,01,29,13.90
2013,12,02,01,30,13.40
2013,12,02,01,31,22.00
2013,12,02,01,32,24.00
2013,12,02,01,33,18.80
2013,12,02,01,34,10.00
2013,12,02,01,35,24.50
2013,12,02,01,36,25.50
2013,12,02,01,37,30.40
2013,12,02,01,38,16.80
2013,12,02,01,39,17.00
2013,12,02,01,40,19.00
2013,12,02,01,41,25.40
2013,12,02,01,42,16.30
2013,12,02,01,43,19.20
2013,12,02,01,44,19.50
2013,12,02,01,45,25.90
2013,12,02,01,46,19.70
2013,12,02,01,47,14.90
2013,12,02,01,48,18.60
2013,12,02,01,49,19.70
2013,12,02,01,50,12.10
2013,12,02,01,51,10.70
2013,12,02,01,52,11.60
2013,12,02,01,53,19.60
2013,12,02,01,54,14.70
2013,12,02,01,55,14.20
2013,12,02,01,56,13.60
2013,12,02,01,57,13.00
2013,12,02,01,58,13.30
2013,12,02,01,59,11.40
2013,12,02,02,00,15.40
2013,12,02,02,01,13.50
2013,12,02,02,02,12.70
2013,12,02,02,03,10.30
2013,12,02,02,04,13.50
2013,12,02,02,05,15.00
2013,12,02,02,06,16.20
2013,12,02,02,07,15.70
2013,12,02,02,08,18.90
2013,12,02,02,09,6.00
2013,12,02,02,10,11.40
2013,12,02,02,11,16.50
2013,12,02,02,12,18.20
2013,12,02,02,13,19.50
2013,12,02,02,14,12.30
2013,12,02,02,15,11.40
2013,12,02,02,16,13.50
2013,12,02,02,17,15.20
2013,12,02,02,18,15.10
2013,12,02,02,19,16.00
2013,12,02,02,20,20.40
2013,12,02,02,21,19.40
2013,12,02,02,22,14.10
2013,12,02,02,23,9.60
2013,12,02,02,24,16.50
2013,12,02,02,25,17.90
2013,12,02,02,26,17.90
2013,12,02,02,27,16.30
2013,12,02,02,28,15.60
2013,12,02,02,29,14.10
2013,12,02,02,30,12.60
2013,12,02,02,31,14.80
2013,12,02,02,32,12.50
2013,12,02,02,33,17.50
2013,12,02,02,34,11.70
2013,12,02,02,35,16.40
2013,12,02,02,36,14.30
2013,12,02,02,37,12.00
2013,12,02,02,38,9.00
2013,12,02,02,39,10.20
2013,12,02,02,40,9.60
2013,12,02,02,41,6.20
2013,12,02,02,42,6.10
2013,12,02,02,43,12.60
2013,12,02,02,44,14.70
2013,12,02,02,45,14.60
2013,12,02,02,46,13.20
2013,12,02,02,47,17.20
2013,12,02,02,48,17.50
2013,12,02,02,49,11.40
2013,12,02,02,50,14.50
2013,12,02,02,51,9.40
2013,12,02,02,52,10.10
2013,12,02,02,53,6.60
2013,12,02,02,54,13.00
2013,12,02,02,55,13.80
2013,12,02,02,56,20.40
2013,12,02,02,57,18.60
2013,12,02,02,58,19.50
2013,12,02,02,59,11.00
2013,12,02,03,00,9.60
2013,12,02,03,01,14.20
2013,12,02,03,02,10.60
2013,12,02,03,03,6.80
2013,12,02,03,04,17.10
2013,12,02,03,05,14.70
2013,12,02,03,06,10.50
2013,12,02,03,07,14.50
2013,12,02,03,08,20.00
2013,12,02,03,09,12.30
2013,12,02,03,10,18.80
2013,12,02,03,11,12.20
2013,12,02,03,12,17.20
2013,12,02,03,13,11.80
2013,12,02,03,14,11.70
2013,12,02,03,15,15.90
2013,12,02,03,16,11.70
2013,12,02,03,17,17.50
2013,12,02,03,18,18.70
2013,12,02,03,19,16.70
2013,12,02,03,20,15.70
2013,12,02,03,21,16.70
2013,12,02,03,22,10.10
2013,12,02,03,23,13.50
2013,12,02,03,24,13.30
2013,12,02,03,25,15.80
2013,12,02,03,26,14.20
2013,12,02,03,27,13.30
2013,12,02,03,28,15.40
2013,12,02,03,29,12.20
2013,12,02,03,30,14.20
2013,12,02,03,31,16.70
2013,12,02,03,32,18.90
2013,12,02,03,33,15.30
2013,12,02,03,34,16.20
2013,12,02,03,35,22.60
2013,12,02,03,36,20.80
2013,12,02,03,37,22.50
2013,12,02,03,38,22.10
2013,12,02,03,39,14.30
2013,12,02,03,40,21.20
2013,12,02,03,41,16.80
2013,12,02,03,42,16.10
2013,12,02,03,43,17.50
2013,12,02,03,44,16.30
2013,12,02,03,45,15.90
2013,12,02,03,46,12.70
2013,12,02,03,47,12.50
2013,12,02,03,48,9.50
2013,12,02,03,49,11.30
2013,12,02,03,50,13.50
2013,12,02,03,51,8.40
2013,12,02,03,52,12.10
2013,12,02,03,53,14.70
2013,12,02,03,54,14.20
2013,12,02,03,55,9.10
2013,12,02,03,56,9.60
2013,12,02,03,57,10.50
2013,12,02,03,58,12.20
2013,12,02,03,59,9.50
2013,12,02,04,00,19.10
2013,12,02,04,01,12.60
2013,12,02,04,02,9.30
2013,12,02,04,03,12.90
2013,12,02,04,04,8.10
2013,12,02,04,05,14.30
2013,12,02,04,06,13.40
2013,12,02,04,07,9.20
2013,12,02,04,08,12.40
2013,12,02,04,09,12.00
2013,12,02,04,10,19.70
2013,12,02,04,11,14.00
2013,12,02,04,12,11.60
2013,12,02,04,13,14.20
2013,12,02,04,14,15.10
2013,12,02,04,15,12.90
2013,12,02,04,16,10.90
2013,12,02,04,17,15.90
2013,12,02,04,18,12.30
2013,12,02,04,19,13.70
2013,12,02,04,20,9.40
2013,12,02,04,21,10.40
2013,12,02,04,22,13.20
2013,12,02,04,23,14.60
2013,12,02,04,24,12.10
2013,12,02,04,25,10.10
2013,12,02,04,26,11.30
2013,12,02,04,27,9.60
2013,12,02,04,28,10.10
2013,12,02,04,29,16.60
2013,12,02,04,30,16.60
2013,12,02,04,31,15.00
2013,12,02,04,32,13.80
2013,12,02,04,33,15.60
2013,12,02,04,34,14.20
2013,12,02,04,35,12.50
2013,12,02,04,36,4.60
2013,12,02,04,37,1.80
2013,12,02,04,38,8.50
2013,12,02,04,39,9.60
2013,12,02,04,40,6.70
2013,12,02,04,41,6.40
2013,12,02,04,42,6.40
2013,12,02,04,43,6.40
2013,12,02,04,44,6.40
2013,12,02,04,45,7.10
2013,12,02,04,46,9.80
2013,12,02,04,47,11.30
2013,12,02,04,48,13.90
2013,12,02,04,49,8.10
2013,12,02,04,50,6.80
2013,12,02,04,51,8.60
2013,12,02,04,52,4.70
2013,12,02,04,53,0.70
2013,12,02,04,54,5.20
2013,12,02,04,55,2.50
2013,12,02,04,56,4.50
2013,12,02,04,57,4.50
2013,12,02,04,58,8.50
2013,12,02,04,59,13.40
2013,12,02,05,00,5.10
2013,12,02,05,01,2.30
2013,12,02,05,02,7.30
2013,12,02,05,03,11.50
2013,12,02,05,04,4.30
2013,12,02,05,05,10.20
2013,12,02,05,06,5.50
2013,12,02,05,07,6.80
2013,12,02,05,08,6.00
2013,12,02,05,09,8.60
2013,12,02,05,10,9.50
2013,12,02,05,11,7.80
2013,12,02,05,12,13.00
2013,12,02,05,13,12.00
2013,12,02,05,14,7.20
2013,12,02,05,15,9.50
2013,12,02,05,16,8.40
2013,12,02,05,17,13.30
2013,12,02,05,18,10.60
2013,12,02,05,19,10.00
2013,12,02,05,20,5.10
2013,12,02,05,21,6.80
2013,12,02,05,22,4.00
2013,12,02,05,23,6.30
2013,12,02,05,24,7.80
2013,12,02,05,25,6.60
2013,12,02,05,26,8.80
2013,12,02,05,27,5.70
2013,12,02,05,28,5.50
2013,12,02,05,29,7.70
2013,12,02,05,30,5.80
2013,12,02,05,31,4.30
2013,12,02,05,32,7.60
2013,12,02,05,33,6.80
2013,12,02,05,34,4.50
2013,12,02,05,35,11.00
2013,12,02,05,36,13.00
2013,12,02,05,37,9.60
2013,12,02,05,38,8.30
2013,12,02,05,39,7.80
2013,12,02,05,40,9.60
2013,12,02,05,41,5.40
2013,12,02,05,42,5.70
2013,12,02,05,43,9.00
2013,12,02,05,44,10.80
2013,12,02,05,45,8.30
2013,12,02,05,46,5.30
2013,12,02,05,47,14.80
2013,12,02,05,48,11.70
2013,12,02,05,49,10.00
2013,12,02,05,50,13.80
2013,12,02,05,51,9.90
2013,12,02,05,52,13.00
2013,12,02,05,53,15.70
2013,12,02,05,54,14.20
2013,12,02,05,55,14.50
2013,12,02,05,56,17.00
2013,12,02,05,57,14.20
2013,12,02,05,58,13.20
2013,12,02,05,59,14.60
2013,12,02,06,00,9.70
2013,12,02,06,01,12.60
2013,12,02,06,02,10.10
2013,12,02,06,03,12.50
2013,12,02,06,04,7.10
2013,12,02,06,05,8.00
2013,12,02,06,06,9.60
2013,12,02,06,07,6.00
2013,12,02,06,08,12.60
2013,12,02,06,09,8.60
2013,12,02,06,10,9.20
2013,12,02,06,11,3.50
2013,12,02,06,12,3.50
2013,12,02,06,13,8.80
2013,12,02,06,14,11.30
2013,12,02,06,15,9.70
2013,12,02,06,16,3.80
2013,12,02,06,17,9.60
2013,12,02,06,18,8.70
2013,12,02,06,19,7.60
2013,12,02,06,20,10.00
2013,12,02,06,21,7.70
2013,12,02,06,22,6.50
2013,12,02,06,23,5.20
2013,12,02,06,24,3.10
2013,12,02,06,25,4.90
2013,12,02,06,26,4.10
2013,12,02,06,27,0.60
2013,12,02,06,28,3.80
2013,12,02,06,29,2.90
2013,12,02,06,30,0.00
2013,12,02,06,31,2.60
2013,12,02,06,32,1.70
2013,12,02,06,33,3.00
2013,12,02,06,34,1.80
2013,12,02,06,35,1.40
2013,12,02,06,36,1.00
2013,12,02,06,37,0.10
2013,12,02,06,38,5.40
2013,12,02,06,39,4.70
2013,12,02,06,40,4.80
2013,12,02,06,41,5.10
2013,12,02,06,42,4.70
2013,12,02,06,43,7.70
2013,12,02,06,44,1.90
2013,12,02,06,45,5.30
2013,12,02,06,46,4.90
2013,12,02,06,47,6.50
2013,12,02,06,48,8.20
2013,12,02,06,49,7.20
2013,12,02,06,50,4.70
2013,12,02,06,51,1.90
2013,12,02,06,52,7.60
2013,12,02,06,53,9.20
2013,12,02,06,54,7.40
2013,12,02,06,55,10.00
2013,12,02,06,56,7.70
2013,12,02,06,57,6.10
2013,12,02,06,58,7.70
2013,12,02,06,59,6.40
2013,12,02,07,00,6.60
2013,12,02,07,01,8.80
2013,12,02,07,02,16.90
2013,12,02,07,03,14.30
2013,12,02,07,04,11.60
2013,12,02,07,05,12.10
2013,12,02,07,06,12.80
2013,12,02,07,07,8.00
2013,12,02,07,08,5.50
2013,12,02,07,09,7.30
2013,12,02,07,10,12.30
2013,12,02,07,11,9.70
2013,12,02,07,12,6.10
2013,12,02,07,13,5.60
2013,12,02,07,14,7.70
2013,12,02,07,15,4.20
2013,12,02,07,16,4.30
2013,12,02,07,17,1.90
2013,12,02,07,18,9.40
2013,12,02,07,19,10.10
2013,12,02,07,20,15.00
2013,12,02,07,21,7.40
2013,12,02,07,22,13.30
2013,12,02,07,23,9.30
2013,12,02,07,24,8.10
2013,12,02,07,25,5.50
2013,12,02,07,26,7.70
2013,12,02,07,27,8.60
2013,12,02,07,28,6.80
2013,12,02,07,29,3.90
2013,12,02,07,30,6.40
2013,12,02,07,31,5.70
2013,12,02,07,32,5.30
2013,12,02,07,33,7.00
2013,12,02,07,34,8.80
2013,12,02,07,35,9.30
2013,12,02,07,36,9.30
2013,12,02,07,37,11.40
2013,12,02,07,38,9.60
2013,12,02,07,39,7.70
2013,12,02,07,40,5.10
2013,12,02,07,41,12.00
2013,12,02,07,42,11.80
2013,12,02,07,43,10.50
2013,12,02,07,44,15.60
2013,12,02,07,45,10.30
2013,12,02,07,46,13.40
2013,12,02,07,47,8.90
2013,12,02,07,48,6.70
2013,12,02,07,49,8.40
2013,12,02,07,50,9.90
2013,12,02,07,51,8.00
2013,12,02,07,52,3.40
2013,12,02,07,53,7.40
2013,12,02,07,54,4.80
2013,12,02,07,55,5.70
2013,12,02,07,56,8.50
2013,12,02,07,57,9.50
2013,12,02,07,58,6.80
2013,12,02,07,59,1.10
2013,12,02,08,00,4.20
2013,12,02,08,01,4.20
2013,12,02,08,02,4.70
2013,12,02,08,03,8.00
2013,12,02,08,04,8.10
2013,12,02,08,05,6.90
2013,12,02,08,06,6.00
2013,12,02,08,07,5.80
2013,12,02,08,08,3.90
2013,12,02,08,09,7.60
2013,12,02,08,10,8.70
2013,12,02,08,11,6.20
2013,12,02,08,12,8.10
2013,12,02,08,13,8.70
2013,12,02,08,14,7.20
2013,12,02,08,15,3.00
2013,12,02,08,16,8.80
2013,12,02,08,17,6.50
2013,12,02,08,18,4.70
2013,12,02,08,19,10.90
2013,12,02,08,20,8.50
2013,12,02,08,21,5.40
2013,12,02,08,22,0.80
2013,12,02,08,23,3.80
2013,12,02,08,24,2.80
2013,12,02,08,25,6.50
2013,12,02,08,26,6.60
2013,12,02,08,27,5.70
2013,12,02,08,28,1.60
2013,12,02,08,29,2.60
2013,12,02,08,30,0.50
2013,12,02,08,31,4.10
2013,12,02,08,32,3.40
2013,12,02,08,33,4.20
2013,12,02,08,34,4.40
2013,12,02,08,35,6.60
2013,12,02,08,36,7.40
2013,12,02,08,37,6.30
2013,12,02,08,38,3.40
2013,12,02,08,39,6.50
2013,12,02,08,40,4.20
2013,12,02,08,41,6.00
2013,12,02,08,42,9.30
2013,12,02,08,43,10.20
2013,12,02,08,44,8.10
2013,12,02,08,45,7.40
2013,12,02,08,46,5.50
2013,12,02,08,47,8.50
2013,12,02,08,48,6.40
2013,12,02,08,49,4.80
2013,12,02,08,50,3.60
2013,12,02,08,51,2.70
2013,12,02,08,52,10.30
2013,12,02,08,53,5.10
2013,12,02,08,54,9.70
2013,12,02,08,55,11.50
2013,12,02,08,56,7.20
2013,12,02,08,57,7.20
2013,12,02,08,58,1.90
2013,12,02,08,59,2.40
2013,12,02,09,00,6.80
2013,12,02,09,01,4.10
2013,12,02,09,02,7.70
2013,12,02,09,03,8.50
2013,12,02,09,04,6.20
2013,12,02,09,05,11.30
2013,12,02,09,06,13.20
2013,12,02,09,07,4.40
2013,12,02,09,08,4.60
2013,12,02,09,09,3.10
2013,12,02,09,10,7.60
2013,12,02,09,11,8.70
2013,12,02,09,12,6.70
2013,12,02,09,13,6.00
2013,12,02,09,14,1.90
2013,12,02,09,15,5.50
2013,12,02,09,16,7.20
2013,12,02,09,17,4.60
2013,12,02,09,18,3.10
2013,12,02,09,19,5.90
2013,12,02,09,20,9.50
2013,12,02,09,21,9.10
2013,12,02,09,22,3.40
2013,12,02,09,23,9.20
2013,12,02,09,24,6.60
2013,12,02,09,25,4.80
2013,12,02,09,26,3.10
2013,12,02,09,27,3.00
2013,12,02,09,28,1.60
2013,12,02,09,29,1.60
2013,12,02,09,30,1.60
2013,12,02,09,31,1.60
2013,12,02,09,32,1.60
2013,12,02,09,33,3.50
2013,12,02,09,34,7.10
2013,12,02,09,35,6.40
2013,12,02,09,36,7.20
2013,12,02,09,37,4.60
2013,12,02,09,38,4.30
2013,12,02,09,39,10.00
2013,12,02,09,40,9.40
2013,12,02,09,41,5.60
2013,12,02,09,42,6.50
2013,12,02,09,43,6.10
2013,12,02,09,44,4.80
2013,12,02,09,45,6.90
2013,12,02,09,46,4.40
2013,12,02,09,47,8.00
2013,12,02,09,48,7.20
2013,12,02,09,49,6.10
2013,12,02,09,50,5.60
2013,12,02,09,51,4.50
2013,12,02,09,52,7.80
2013,12,02,09,53,8.60
2013,12,02,09,54,10.30
2013,12,02,09,55,9.70
2013,12,02,09,56,10.20
2013,12,02,09,57,6.20
2013,12,02,09,58,5.90
2013,12,02,09,59,6.30
2013,12,02,10,00,5.70
2013,12,02,10,01,1.50
2013,12,02,10,02,6.60
2013,12,02,10,03,8.40
2013,12,02,10,04,10.20
2013,12,02,10,05,3.30
2013,12,02,10,06,8.00
2013,12,02,10,07,8.90
2013,12,02,10,08,8.90
2013,12,02,10,09,5.50
2013,12,02,10,10,8.00
2013,12,02,10,11,6.30
2013,12,02,10,12,8.70
2013,12,02,10,13,8.70
2013,12,02,10,14,8.30
2013,12,02,10,15,8.10
2013,12,02,10,16,12.60
2013,12,02,10,17,8.40
2013,12,02,10,18,9.90
2013,12,02,10,19,6.10
2013,12,02,10,20,7.00
2013,12,02,10,21,8.10
2013,12,02,10,22,9.60
2013,12,02,10,23,7.30
2013,12,02,10,24,7.30
2013,12,02,10,25,9.40
2013,12,02,10,26,3.20
2013,12,02,10,27,6.90
2013,12,02,10,28,8.10
2013,12,02,10,29,6.10
2013,12,02,10,30,3.00
2013,12,02,10,31,6.20
2013,12,02,10,32,7.60
2013,12,02,10,33,9.10
2013,12,02,10,34,11.40
2013,12,02,10,35,4.20
2013,12,02,10,36,4.70
2013,12,02,10,37,4.80
2013,12,02,10,38,5.10
2013,12,02,10,39,7.10
2013,12,02,10,40,7.70
2013,12,02,10,41,10.30
2013,12,02,10,42,8.60
2013,12,02,10,43,9.70
2013,12,02,10,44,12.40
2013,12,02,10,45,13.30
2013,12,02,10,46,5.60
2013,12,02,10,47,4.80
2013,12,02,10,48,9.70
2013,12,02,10,49,14.90
2013,12,02,10,50,10.60
2013,12,02,10,51,10.30
2013,12,02,10,52,13.80
2013,12,02,10,53,9.00
2013,12,02,10,54,7.70
2013,12,02,10,55,9.00
2013,12,02,10,56,12.40
2013,12,02,10,57,12.90
2013,12,02,10,58,8.90
2013,12,02,10,59,12.20
2013,12,02,11,00,8.90
2013,12,02,11,01,4.80
2013,12,02,11,02,8.50
2013,12,02,11,03,12.70
2013,12,02,11,04,12.20
2013,12,02,11,05,8.10
2013,12,02,11,06,6.20
2013,12,02,11,07,14.40
2013,12,02,11,08,15.90
2013,12,02,11,09,15.50
2013,12,02,11,10,15.40
2013,12,02,11,11,9.10
2013,12,02,11,12,8.10
2013,12,02,11,13,8.40
2013,12,02,11,14,9.20
2013,12,02,11,15,12.00
2013,12,02,11,16,13.10
2013,12,02,11,17,15.10
2013,12,02,11,18,11.00
2013,12,02,11,19,11.30
2013,12,02,11,20,10.00
2013,12,02,11,21,7.40
2013,12,02,11,22,8.50
2013,12,02,11,23,15.00
2013,12,02,11,24,15.50
2013,12,02,11,25,12.30
2013,12,02,11,26,12.00
2013,12,02,11,27,7.30
2013,12,02,11,28,10.30
2013,12,02,11,29,7.30
2013,12,02,11,30,11.30
2013,12,02,11,31,16.60
2013,12,02,11,32,13.80
2013,12,02,11,33,13.90
2013,12,02,11,34,12.10
2013,12,02,11,35,10.70
2013,12,02,11,36,12.70
2013,12,02,11,37,12.60
2013,12,02,11,38,13.40
2013,12,02,11,39,13.40
2013,12,02,11,40,14.60
2013,12,02,11,41,5.90
2013,12,02,11,42,5.20
2013,12,02,11,43,13.80
2013,12,02,11,44,9.10
2013,12,02,11,45,8.80
2013,12,02,11,46,13.30
2013,12,02,11,47,10.50
2013,12,02,11,48,16.00
2013,12,02,11,49,13.80
2013,12,02,11,50,11.30
2013,12,02,11,51,9.30
2013,12,02,11,52,14.60
2013,12,02,11,53,14.10
2013,12,02,11,54,18.40
2013,12,02,11,55,14.00
2013,12,02,11,56,8.30
2013,12,02,11,57,1.10
2013,12,02,11,58,12.60
2013,12,02,11,59,13.20
2013,12,02,12,00,10.50
2013,12,02,12,01,17.50
2013,12,02,12,02,12.60
2013,12,02,12,03,14.40
2013,12,02,12,04,10.00
2013,12,02,12,05,9.40
2013,12,02,12,06,15.20
2013,12,02,12,07,10.90
2013,12,02,12,08,6.60
2013,12,02,12,09,6.90
2013,12,02,12,10,10.40
2013,12,02,12,11,11.00
2013,12,02,12,12,14.00
2013,12,02,12,13,9.70
2013,12,02,12,14,10.30
2013,12,02,12,15,6.40
2013,12,02,12,16,6.50
2013,12,02,12,17,9.90
2013,12,02,12,18,9.10
2013,12,02,12,19,5.50
2013,12,02,12,20,15.90
2013,12,02,12,21,8.30
2013,12,02,12,22,12.50
2013,12,02,12,23,8.80
2013,12,02,12,24,8.00
2013,12,02,12,25,8.00
2013,12,02,12,26,10.20
2013,12,02,12,27,13.90
2013,12,02,12,28,11.40
2013,12,02,12,29,17.90
2013,12,02,12,30,12.70
2013,12,02,12,31,9.30
2013,12,02,12,32,8.60
2013,12,02,12,33,8.30
2013,12,02,12,34,10.20
2013,12,02,12,35,9.70
2013,12,02,12,36,5.90
2013,12,02,12,37,9.30
2013,12,02,12,38,8.40
2013,12,02,12,39,11.80
2013,12,02,12,40,5.60
2013,12,02,12,41,3.50
2013,12,02,12,42,1.50
2013,12,02,12,43,14.00
2013,12,02,12,44,14.30
2013,12,02,12,45,13.20
2013,12,02,12,46,11.10
2013,12,02,12,47,9.60
2013,12,02,12,48,8.90
2013,12,02,12,49,8.70
2013,12,02,12,50,10.30
2013,12,02,12,51,8.40
2013,12,02,12,52,6.40
2013,12,02,12,53,5.50
2013,12,02,12,54,8.30
2013,12,02,12,55,4.20
2013,12,02,12,56,10.00
2013,12,02,12,57,9.30
2013,12,02,12,58,8.90
2013,12,02,12,59,5.00
2013,12,02,13,00,6.80
2013,12,02,13,01,5.70
2013,12,02,13,02,8.80
2013,12,02,13,03,10.50
2013,12,02,13,04,5.80
2013,12,02,13,05,7.50
2013,12,02,13,06,11.20
2013,12,02,13,07,15.30
2013,12,02,13,08,9.80
2013,12,02,13,09,15.10
2013,12,02,13,10,17.20
2013,12,02,13,11,11.00
2013,12,02,13,12,11.10
2013,12,02,13,13,8.90
2013,12,02,13,14,11.00
2013,12,02,13,15,8.60
2013,12,02,13,16,7.30
2013,12,02,13,17,11.00
2013,12,02,13,18,11.60
2013,12,02,13,19,9.20
2013,12,02,13,20,11.50
2013,12,02,13,21,9.70
2013,12,02,13,22,14.60
2013,12,02,13,23,10.40
2013,12,02,13,24,10.40
2013,12,02,13,25,10.00
2013,12,02,13,26,8.30
2013,12,02,13,27,10.00
2013,12,02,13,28,6.80
2013,12,02,13,29,5.30
2013,12,02,13,30,6.00
2013,12,02,13,31,10.10
2013,12,02,13,32,11.50
2013,12,02,13,33,8.90
2013,12,02,13,34,6.80
2013,12,02,13,35,4.50
2013,12,02,13,36,8.50
2013,12,02,13,37,8.50
2013,12,02,13,38,8.60
2013,12,02,13,39,8.10
2013,12,02,13,40,2.30
2013,12,02,13,41,4.10
2013,12,02,13,42,6.30
2013,12,02,13,43,6.40
2013,12,02,13,44,3.50
2013,12,02,13,45,6.80
2013,12,02,13,46,6.00
2013,12,02,13,47,5.70
2013,12,02,13,48,5.40
2013,12,02,13,49,7.00
2013,12,02,13,50,5.90
2013,12,02,13,51,3.30
2013,12,02,13,52,6.40
2013,12,02,13,53,4.60
2013,12,02,13,54,4.50
2013,12,02,13,55,2.60
2013,12,02,13,56,6.20
2013,12,02,13,57,5.00
2013,12,02,13,58,7.20
2013,12,02,13,59,7.20
2013,12,02,14,00,2.50
2013,12,02,14,01,6.10
2013,12,02,14,02,4.50
2013,12,02,14,03,2.70
2013,12,02,14,04,6.60
2013,12,02,14,05,4.90
2013,12,02,14,06,3.80
2013,12,02,14,07,1.70
2013,12,02,14,08,3.30
2013,12,02,14,09,1.00
2013,12,02,14,10,4.50
2013,12,02,14,11,3.00
2013,12,02,14,12,4.10
2013,12,02,14,13,2.00
2013,12,02,14,14,3.20
2013,12,02,14,15,1.00
2013,12,02,14,16,4.10
2013,12,02,14,17,5.20
2013,12,02,14,18,2.20
2013,12,02,14,19,1.20
2013,12,02,14,20,3.30
2013,12,02,14,21,4.20
2013,12,02,14,22,3.10
2013,12,02,14,23,3.20
2013,12,02,14,24,3.00
2013,12,02,14,25,3.20
2013,12,02,14,26,1.30
2013,12,02,14,27,0.10
2013,12,02,14,28,1.80
2013,12,02,14,29,0.60
2013,12,02,14,30,2.80
2013,12,02,14,31,2.80
2013,12,02,14,32,0.60
2013,12,02,14,33,0.20
2013,12,02,14,34,0.00
2013,12,02,14,35,0.20
2013,12,02,14,36,0.60
2013,12,02,14,37,4.00
2013,12,02,14,38,4.30
2013,12,02,14,39,4.40
2013,12,02,14,40,1.50
2013,12,02,14,41,2.30
2013,12,02,14,42,2.70
2013,12,02,14,43,3.30
2013,12,02,14,44,0.90
2013,12,02,14,45,1.70
2013,12,02,14,46,0.40
2013,12,02,14,47,0.10
2013,12,02,14,48,0.00
2013,12,02,14,49,0.10
2013,12,02,14,50,0.00
2013,12,02,14,51,0.20
2013,12,02,14,52,0.10
2013,12,02,14,53,0.20
2013,12,02,14,54,1.00
2013,12,02,14,55,0.00
2013,12,02,14,56,0.70
2013,12,02,14,57,0.50
2013,12,02,14,58,0.60
2013,12,02,14,59,0.00
2013,12,02,15,00,0.50
2013,12,02,15,01,0.00
2013,12,02,15,02,0.00
2013,12,02,15,03,0.10
2013,12,02,15,04,0.00
2013,12,02,15,05,0.00
2013,12,02,15,06,0.00
2013,12,02,15,07,0.20
2013,12,02,15,08,0.60
2013,12,02,15,09,0.30
2013,12,02,15,10,1.20
2013,12,02,15,11,1.20
2013,12,02,15,12,1.80
2013,12,02,15,13,1.00
2013,12,02,15,14,1.10
2013,12,02,15,15,0.10
2013,12,02,15,16,0.00
2013,12,02,15,17,0.60
2013,12,02,15,18,0.00
2013,12,02,15,19,0.00
2013,12,02,15,20,0.00
2013,12,02,15,21,0.00
2013,12,02,15,22,0.00
2013,12,02,15,23,0.00
2013,12,02,15,24,0.00
2013,12,02,15,25,0.00
2013,12,02,15,26,0.00
2013,12,02,15,27,0.00
2013,12,02,15,28,0.00
2013,12,02,15,29,0.00
2013,12,02,15,30,0.00
2013,12,02,15,31,0.00
2013,12,02,15,32,0.00
2013,12,02,15,33,0.20
2013,12,02,15,34,0.00
2013,12,02,15,35,0.00
2013,12,02,15,36,0.00
2013,12,02,15,37,0.00
2013,12,02,15,38,0.00
2013,12,02,15,39,0.00
2013,12,02,15,40,0.20
2013,12,02,15,41,0.00
2013,12,02,15,42,0.10
2013,12,02,15,43,0.00
2013,12,02,15,44,0.00
2013,12,02,15,45,0.00
2013,12,02,15,46,0.00
2013,12,02,15,47,1.00
2013,12,02,15,48,0.30
2013,12,02,15,49,0.00
2013,12,02,15,50,0.00
2013,12,02,15,51,0.00
2013,12,02,15,52,0.00
2013,12,02,15,53,0.00
2013,12,02,15,54,0.00
2013,12,02,15,55,0.00
2013,12,02,15,56,0.00
2013,12,02,15,57,0.00
2013,12,02,15,58,0.40
2013,12,02,15,59,0.00
2013,12,02,16,00,0.10
2013,12,02,16,01,0.00
2013,12,02,16,02,0.00
2013,12,02,16,03,0.00
2013,12,02,16,04,0.00
2013,12,02,16,05,0.00
2013,12,02,16,06,0.00
2013,12,02,16,07,0.00
2013,12,02,16,08,0.00
2013,12,02,16,09,0.10
2013,12,02,16,10,0.00
2013,12,02,16,11,0.00
2013,12,02,16,12,0.00
2013,12,02,16,13,0.00
2013,12,02,16,14,0.00
2013,12,02,16,15,0.00
2013,12,02,16,16,0.00
2013,12,02,16,17,0.00
2013,12,02,16,18,0.00
2013,12,02,16,19,0.10
2013,12,02,16,20,0.00
2013,12,02,16,21,0.00
2013,12,02,16,22,0.00
2013,12,02,16,23,0.00
2013,12,02,16,24,0.00
2013,12,02,16,25,0.00
2013,12,02,16,26,0.00
2013,12,02,16,27,0.00
2013,12,02,16,28,0.00
2013,12,02,16,29,0.00
2013,12,02,16,30,0.00
2013,12,02,16,31,0.00
2013,12,02,16,32,0.00
2013,12,02,16,33,0.00
2013,12,02,16,34,0.00
2013,12,02,16,35,0.00
2013,12,02,16,36,0.00
2013,12,02,16,37,0.00
2013,12,02,16,38,0.00
2013,12,02,16,39,0.00
2013,12,02,16,40,0.00
2013,12,02,16,41,0.00
2013,12,02,16,42,0.00
2013,12,02,16,43,0.00
2013,12,02,16,44,0.00
2013,12,02,16,45,0.00
2013,12,02,16,46,0.00
2013,12,02,16,47,0.00
2013,12,02,16,48,0.00
2013,12,02,16,49,0.00
2013,12,02,16,50,0.00
2013,12,02,16,51,0.00
2013,12,02,16,52,0.00
2013,12,02,16,53,0.00
2013,12,02,16,54,0.00
2013,12,02,16,55,0.00
2013,12,02,16,56,0.00
2013,12,02,16,57,0.00
2013,12,02,16,58,0.00
2013,12,02,16,59,0.00
2013,12,02,17,00,0.00
2013,12,02,17,01,0.00
2013,12,02,17,02,0.00
2013,12,02,17,03,0.00
2013,12,02,17,04,0.00
2013,12,02,17,05,0.00
2013,12,02,17,06,0.00
2013,12,02,17,07,0.00
2013,12,02,17,08,0.00
2013,12,02,17,09,0.00
2013,12,02,17,10,0.00
2013,12,02,17,11,0.00
2013,12,02,17,12,0.00
2013,12,02,17,13,0.00
2013,12,02,17,14,0.00
2013,12,02,17,15,0.00
2013,12,02,17,16,0.00
2013,12,02,17,17,0.00
2013,12,02,17,18,0.00
2013,12,02,17,19,0.00
2013,12,02,17,20,0.00
2013,12,02,17,21,0.00
2013,12,02,17,22,0.00
2013,12,02,17,23,0.00
2013,12,02,17,24,0.00
2013,12,02,17,25,0.00
2013,12,02,17,26,0.00
2013,12,02,17,27,0.00
2013,12,02,17,28,0.00
2013,12,02,17,29,0.00
2013,12,02,17,30,0.00
2013,12,02,17,31,0.00
2013,12,02,17,32,0.00
2013,12,02,17,33,0.00
2013,12,02,17,34,0.00
2013,12,02,17,35,0.00
2013,12,02,17,36,0.00
2013,12,02,17,37,0.00
2013,12,02,17,38,0.00
2013,12,02,17,39,0.00
2013,12,02,17,40,0.00
2013,12,02,17,41,0.00
2013,12,02,17,42,0.00
2013,12,02,17,43,0.00
2013,12,02,17,44,0.00
2013,12,02,17,45,0.00
2013,12,02,17,46,0.00
2013,12,02,17,47,0.00
2013,12,02,17,48,0.00